Погода в Храпках

Россия / Владимирская область     56°07′58″N   38°46′32″E
темп.,
°C
ветер,
м/с
пор.,
м/с
влажн.,
%
обл.,
%
осадки,
мм/ч
давл.,
гПа
погр.,
м
13 апреля, вт
вт1300:00+7вюв3119193 0.0 1029300
03:00+7юв3129696 0.0 1028283
06:00+7ююв3129399 0.0 1027259
09:00+13ююв41166100 0.0 1026399
12:00+18ю5843100 0.0 1025896
15:00+19ю4838100 0.0 10241443
18:00+17ююв38475 0.0 1023253
21:00+11ююв3106552 0.0 1024177
14 апреля, ср
ср1400:00+10ююв315671 0.0 1023346
03:00+8ююв311755 0.0 1023222
06:00+7ююв397988 0.0 1022177
09:00+13ююв485895 0.0 1021358
12:00+18ю4738100 0.0 10201038
15:00+19ю4731100 0.0 10191869
18:00+16ю2447100 0.0 101886
21:00+11ююв246260 0.0 101965
15 апреля, чт
чт1500:00+9ююв2268100 0.0 101813
03:00+8юв227084 0.0 101811
06:00+7вюв2272100 0.0 101812
09:00+12вюв2356100 0.0 1018218
12:00+15вюв2348100 0.0 1018584
15:00+17всв2342100 0.0 10171002
18:00+14св3855100 0.0 1017275
21:00+10св51385100 0.0 1019465
16 апреля, пт
пт1600:00+8св51387100 0.0 1019486
03:00+6св5128891 0.0 1020472
06:00+6св5128799 0.0 1021492
09:00+8всв6117786 0.0 1021528
12:00+7св51180100 0.0 1022553
15:00+11всв597199 0.3 1022865
18:00+10всв51280100 0.0 1023768
21:00+8всв51481100 0.0 1023598
17 апреля, сб
сб1700:00+7всв51477100 0.0 1024546
03:00+6всв41274100 0.0 1025465
06:00+5всв5137287 0.1 1026468
09:00+8всв51262100 0.2 1026562
12:00+11всв695047 0.0 1027892
15:00+13всв68425 0.0 10271139
18:00+11всв59445 0.0 1027939
21:00+7всв311615 0.0 1029295